THOR ABLESTAR DEB, 245

Orbit data source: Space-Track

THOR ABLESTAR DEB, 245 is space debris in LEO originally from a launch on Thu, 29 Jun 1961 UTC launched from the Air Force Eastern Test Range (AFETR). Debris objects in space refer to the collection of defunct objects orbiting the Earth. Examples of debris include non-operational satellites, rocket bodies, and fragments generated from explosions, collisions, or faulty payload assembly.

Loading next visibility...
THOR ABLESTAR DEB details
Identifier
245, 1961-015CA
Orbit
LEO
Last TLE update10 hours ago
Origin
Flag of USUSAF SSD (US)
ManufacturerUnknown
MissionSpacecraft
Bus & MotorUnknown
MassUnknown
Launch date (UTC)
1961-06-29 (64 years ago)
Launch vehicleUnknown
Launch site
Air Force Eastern Test Range (AFETR)
Object type
Payload
Rocket body
Debris
Shape & HBRUnknown
Radar Cross SectionMedium (>0.1 m² and <1 m²)

Expand to show TLE details & history

TLE from 10 hours ago
0 THOR ABLESTAR DEB
1   245U 61015CA  25013.94275721  .00001383  00000-0  72251-3 0  9997
2   245  66.1044  94.6550 0044670 151.8995 208.4517 14.17070536254688
Epoch: 2025-01-13T22:37Z
Definitive object data (Epoch: 2025-01-13T22:37:34.222Z)
Latitude-0.00003°
Longitude1.60583°
Altitude865.691 km
Speed7.405 km/s
True Right ascension06h 18m 37s
True Declination0° 00' 00"
Sunlit
Object was in full shadow at TLE epoch
Visualization TLE readout
Latitude28.02742°
Longitude14.04792°
Altitude854.237 km
Speed7.42 km/s
Apparent Right ascension03h 48m 51s
Apparent Declination-10° 24' 58"
Sunlit
Object is in full shadow
Visualization observer readout
Local Sidereal Time09:31:56
Azimuth259.306° W
Elevation-3.46°
Doppler factor1
Orbital elements
Apogee altitude865.947 km
Perigee altitude801.516 km
Semi-major axis7,211.869 km
Eccentricity0.004467
Inclination66.1044°
RAAN94.655°
Arg. of periapsis151.8995°
True anomaly208.20902°
Mean anomaly208.4517°
Eccentric anomaly208.33024°
Mean motion3.54382 °/min
BSTAR0.00072251
Orbital period101.59 mins
Loading maneuver chart data...

THOR ABLESTAR DEB Visibility forecast

Observer location: undefined°, undefined

Span
Click to sort rows by Start time (UTC) header in descending order
Start Az.
Max El. time (UTC)
Max El. Az.
Max El.
End time (UTC)
End Az.
4 mins2025-01-14 09:02:05.176Z297.751° NW2025-01-14 09:04:05.176Z320.256° NNW13.749°2025-01-14 09:06:05.176Z343.1° N
5 mins2025-01-14 14:25:05.176Z17.453° NNE2025-01-14 14:27:05.176Z43.335° NE16.675°2025-01-14 14:30:05.176Z79.138° E
9 mins2025-01-14 16:08:05.176Z327.69° NNW2025-01-14 16:12:05.176Z262.347° W44.726°2025-01-14 16:17:05.176Z155.108° SSE
4 mins2025-01-15 05:16:05.176Z122.12° SE2025-01-15 05:17:05.176Z110.634° ESE14.237°2025-01-15 05:20:05.176Z76.799° E
9 mins2025-01-15 06:57:05.176Z215.899° SW2025-01-15 07:01:05.176Z265.009° W43.869°2025-01-15 07:06:05.176Z26.178° NE
4 mins2025-01-15 08:45:05.176Z300.072° NW2025-01-15 08:47:05.176Z323.493° NNW14.274°2025-01-15 08:49:05.176Z346.222° N
|